This is the latest recevied weather packets stored in our database for station/object OK2ILA-1. If no packets are shown the sender has not sent any weather packets the latest 10 day(s).
| Time | Temp. | Humidity | Pressure | Rain* | Wind** | Luminosity | Snow |
|---|---|---|---|---|---|---|---|
| 1778097165 | 19.44° C | 100% | 1007.1 hPa | 0 mm | - | - | - |
| 1778096444 | 19.44° C | 100% | 1007 hPa | 0 mm | - | - | - |
| 1778095723 | 19.44° C | 100% | 1007 hPa | 0 mm | - | - | - |
| 1778095003 | 19.44° C | 100% | 1007 hPa | 0 mm | - | - | - |
| 1778094765 | 19.44° C | 100% | 1006.8 hPa | 0 mm | - | - | - |
| 1778094282 | 20° C | 100% | 1006.7 hPa | 0 mm | - | - | - |
| 1778093561 | 20° C | 100% | 1006.6 hPa | 0 mm | - | - | - |
| 1778092841 | 20° C | 100% | 1006.4 hPa | 0 mm | - | - | - |
| 1778092120 | 20.56° C | 100% | 1006.2 hPa | 0 mm | - | - | - |
| 1778091399 | 20.56° C | 100% | 1006.2 hPa | 0 mm | - | - | - |
| 1778090679 | 21.11° C | 100% | 1006.2 hPa | 0 mm | - | - | - |
| 1778089958 | 21.11° C | 100% | 1006.2 hPa | 0 mm | - | - | - |
| 1778089237 | 21.67° C | 100% | 1006.2 hPa | 0 mm | - | - | - |
| 1778088517 | 21.67° C | 100% | 1006.2 hPa | 0 mm | - | - | - |
| 1778087796 | 22.22° C | 100% | 1006.3 hPa | 0 mm | - | - | - |
| 1778087075 | 22.22° C | 100% | 1006.5 hPa | 0 mm | - | - | - |
| 1778086355 | 22.78° C | 100% | 1006.4 hPa | 0 mm | - | - | - |
| 1778085634 | 22.78° C | 100% | 1006.4 hPa | 0 mm | - | - | - |
| 1778084913 | 23.33° C | 100% | 1006.5 hPa | 0 mm | - | - | - |
| 1778084193 | 23.33° C | 100% | 1006.7 hPa | 0 mm | - | - | - |
| 1778083472 | 23.89° C | 100% | 1006.8 hPa | 0 mm | - | - | - |
| 1778082751 | 23.89° C | 100% | 1007.1 hPa | 0 mm | - | - | - |
| 1778082030 | 22.78° C | 100% | 1007.4 hPa | 0 mm | - | - | - |
| 1778081310 | 22.78° C | 100% | 1007.4 hPa | 0 mm | - | - | - |
| 1778080589 | 23.33° C | 100% | 1007.4 hPa | 0 mm | - | - | - |
* Rain latest hour (hover to see other rain measurements)
** Current wind speed in m/s (hover to see current wind gust speed)